Location: Warszawa
(52.2500°N, 21.0000°E)
Time: 01:11:02
(UTC+02:00)

FO-29 - Visible Passes

Search period start: 19 April 2024 00:00
Search period end: 29 April 2024 00:00
Orbit: 800 x 1321 km, 98.6° (Epoch: 18 April)

Date Brightness Start Highest point End Pass type
(mag) Time Alt. Az. Time Alt. Az. Time Alt. Az.
19 Apr 10.9 01:44:59 10° NNE 01:51:52 40° E 01:56:17 22° SSE visible
19 Apr 10.2 03:29:58 10° N 03:37:07 60° WNW 03:42:46 19° SW visible
20 Apr 11.8 00:50:52 10° NE 00:56:02 20° E 01:00:34 12° ESE visible
20 Apr 10.2 02:34:42 10° NNE 02:42:07 75° ESE 02:47:04 25° S visible
20 Apr 10.9 04:20:18 10° N 04:26:40 34° WNW 04:33:25 10° WSW visible
21 Apr 11.0 01:39:49 10° NNE 01:46:43 38° E 01:51:22 21° SSE visible
21 Apr 10.2 03:24:45 10° N 03:32:02 63° WNW 03:37:50 19° SW visible
22 Apr 11.9 00:45:48 10° NE 00:50:50 19° E 00:55:39 11° ESE visible
22 Apr 10.2 02:29:31 10° NNE 02:37:01 71° ESE 02:42:08 24° S visible
22 Apr 10.9 04:15:03 10° N 04:21:36 36° WNW 04:28:30 10° WSW visible
23 Apr 11.1 01:34:41 10° NNE 01:41:35 37° E 01:46:25 19° SSE visible
23 Apr 10.2 03:19:33 10° NNE 03:26:57 66° WNW 03:32:54 19° SW visible
24 Apr 11.9 00:40:46 10° NE 00:45:38 18° E 00:50:35 10° ESE visible
24 Apr 10.3 02:24:20 10° NNE 02:31:55 68° ESE 02:37:11 23° S visible
24 Apr 10.8 04:09:49 10° N 04:16:33 38° WNW 04:23:34 10° WSW visible
25 Apr 11.2 01:29:33 10° NNE 01:36:25 35° E 01:41:28 18° SE visible
25 Apr 10.2 03:14:21 10° NNE 03:21:53 69° WNW 03:27:57 18° SSW visible
26 Apr 12.0 00:35:46 10° NE 00:40:26 17° E 00:45:08 10° ESE visible
26 Apr 10.4 02:19:11 10° NNE 02:26:49 65° ESE 02:32:13 22° S visible
26 Apr 10.8 04:04:36 10° N 04:11:29 40° WNW 04:18:37 10° WSW visible
27 Apr 11.3 01:24:27 10° NNE 01:31:17 33° E 01:36:30 17° SE visible
27 Apr 10.2 03:09:10 10° NNE 03:16:48 73° WNW 03:22:58 18° SSW visible
28 Apr 12.1 00:30:48 10° NE 00:35:13 16° E 00:39:40 10° ESE visible
28 Apr 10.4 02:14:02 10° NNE 02:21:42 62° E 02:27:14 21° S visible
28 Apr 10.7 03:59:24 10° N 04:06:26 42° WNW 04:13:39 10° SW visible
